Regional Weather Roundup
Issued by NWS Little Rock, AR

Home | Current Version | Previous Version | Text Only | Print | Product List | Glossary On
Versions: 1 2 3 4 5 6 7 8 9 10 11 12 13 14 15 16 17 18 19 20 21 22 23 24 25 26 27 28 29 30 31 32 33 34 35 36 37 38 39 40 41 42 43 44 45 46 47 48 49 50
000
ASUS44 KLZK 010605
RWRLZK

WEATHER ROUNDUP FOR ARKANSAS
NATIONAL WEATHER SERVICE LITTLE ROCK AR
100 AM CDT WED OCT 01 2014

NOTE: "FAIR" INDICATES FEW OR NO CLOUDS BELOW 12,000 FEET WITH NO
SIGNIFICANT WEATHER AND/OR OBSTRUCTIONS TO VISIBILITY.

ARZ001-003-010-029-010700-
NORTHWEST ARKANSAS

CITY           SKY/WX    TMP DP  RH WIND       PRES   REMARKS
FAYETTEVILLE   CLEAR     62  59  90 CALM      29.87S
6HR MIN TEMP:  61; 6HR MAX TEMP:  73;

FORT SMITH     CLOUDY    69  62  78 NE6       29.83S
6HR MIN TEMP:  69; 6HR MAX TEMP:  79;

HARRISON       CLEAR     62  60  93 SE7       29.89F
6HR MIN TEMP:  61; 6HR MAX TEMP:  73;

BENTONVILLE    CLEAR     64  57  77 SE7       29.87S
6HR MIN TEMP:  64; 6HR MAX TEMP:  75;

ROGERS         CLEAR     66  60  81 SE8       29.87F
6HR MIN TEMP:  66; 6HR MAX TEMP:  74;

SILOAM SPGS    CLEAR     64  55  72 SE7       29.86F
6HR MIN TEMP:  64; 6HR MAX TEMP:  73;

HIGHFILL       CLEAR     64  59  83 SE5       29.86S
6HR MIN TEMP:  61; 6HR MAX TEMP:  74;

$$

ARZ004-005-016-010700-
NORTH CENTRAL ARKANSAS

CITY           SKY/WX    TMP DP  RH WIND       PRES   REMARKS
BATESVILLE     CLEAR     63  52  67 CALM      29.88S
6HR MIN TEMP:  63; 6HR MAX TEMP:  81;

FLIPPIN        CLEAR     61  54  77 CALM      29.88F
6HR MIN TEMP:  61; 6HR MAX TEMP:  77;

MTN HOME       CLEAR     63  55  75 E3        29.88S
6HR MIN TEMP:  63; 6HR MAX TEMP:  75;

$$

ARZ040-041-010700-
WEST CENTRAL ARKANSAS

CITY           SKY/WX    TMP DP  RH WIND       PRES   REMARKS
MENA             N/A     64  63  94 CALM      29.86F
MOUNT IDA      MOCLDY    65  63  93 CALM      29.85R FOG
6HR MIN TEMP:  65; 6HR MAX TEMP:  74;

$$

ARZ009-017-025-026-028-010700-
NORTHEAST ARKANSAS

CITY           SKY/WX    TMP DP  RH WIND       PRES   REMARKS
CORNING          N/A     64  57  77 CALM      29.88F
JONESBORO      CLEAR     64  61  90 NE3       29.88S
6HR MIN TEMP:  63; 6HR MAX TEMP:  75;

NEWPORT        CLEAR     65  60  83 E3        29.88S
6HR MIN TEMP:  65; 6HR MAX TEMP:  81;

WALNUT RIDGE   CLEAR     64  57  77 E5        29.87R
6HR MIN TEMP:  64; 6HR MAX TEMP:  73;

BLYTHEVILLE    PTCLDY    66  62  87 SE5       29.89S
6HR MIN TEMP:  66; 6HR MAX TEMP:  79;

$$

ARZ022-023-033-042-044-010700-
CENTRAL ARKANSAS

CITY           SKY/WX    TMP DP  RH WIND       PRES   REMARKS
LITTLE ROCK    PTCLDY    70  62  76 CALM      29.86S
6HR MIN TEMP:  69; 6HR MAX TEMP:  80;

N LITTLE ROCK    N/A     73  61  65 SE7       29.86S
6HR MIN TEMP:  70; 6HR MAX TEMP:  78;

JACKSONVILLE   CLEAR     64  60  87 NE1       29.86S
6HR MIN TEMP:  63; 6HR MAX TEMP:  76;

SEARCY           N/A     62  58  86 CALM      29.88S
6HR MIN TEMP:  62; 6HR MAX TEMP:  74;

HOT SPRINGS    CLOUDY    73  60  63 E3        29.86S
6HR MIN TEMP:  68; 6HR MAX TEMP:  80;

RUSSELLVILLE   MOCLDY    64  61  90 CALM      29.86S FOG
6HR MIN TEMP:  63; 6HR MAX TEMP:  76;

CLINTON        FAIR      61  59  94 CALM      29.89S FOG
$$

ARZ036-010700-
EAST ARKANSAS

CITY           SKY/WX    TMP DP  RH WIND       PRES   REMARKS
WEST MEMPHIS   CLEAR     70  64  81 SE3       29.86F
6HR MIN TEMP:  68; 6HR MAX TEMP:  75;

$$

ARZ050-053-066-070-073-010700-
SOUTHWEST ARKANSAS

CITY           SKY/WX    TMP DP  RH WIND       PRES   REMARKS
ARKADELPHIA    FAIR      68  68 100 CALM      29.85S
6HR MIN TEMP:  67; 6HR MAX TEMP:  77;

CAMDEN         PTCLDY    70  64  83 CALM      29.84S
TEXARKANA      PTCLDY    74  66  76 SE5       29.83S
6HR MIN TEMP:  73; 6HR MAX TEMP:  81; 6HR PCP: TRACE;

EL DORADO      PTCLDY    73  67  81 CALM      29.84F
6HR MIN TEMP:  72; 6HR MAX TEMP:  77;

DE QUEEN       PTCLDY    71  65  81 E3        29.81S
6HR MIN TEMP:  71; 6HR MAX TEMP:  78;

$$

ARZ056-057-069-010700-
SOUTHEAST ARKANSAS

CITY           SKY/WX    TMP DP  RH WIND       PRES   REMARKS
PINE BLUFF     PTCLDY    65  61  87 CALM      29.85F
6HR MIN TEMP:  65; 6HR MAX TEMP:  81;

STUTTGART      CLEAR    N/A N/A N/A E6        29.86F
MONTICELLO     PTCLDY    68  62  81 CALM      29.85F
6HR MIN TEMP:  68; 6HR MAX TEMP:  79;


$$




USA.gov is the U.S. government's official web portal to all federal, state and local government web resources and services.